Regional Weather Roundup
Issued by NWS Midland/Odessa, TX

Skip options and go directly to product.
Home | Oldest Version | Next Version | Current Version | All | Text Only | Save Text | Print | Product List | Glossary On

Skip product version selection by date and time.   
294
ASUS44 KMAF 211502
RWRMAF
MIDLAND AREA WEATHER ROUNDUP
NATIONAL WEATHER SERVICE MIDLAND TX
1000 AM CDT TUE OCT 21 2014

...IN SOUTHWEST TEXAS AND SOUTHEAST NEW MEXICO...

CITY           SKY/WX    TMP DP  RH WIND       PRES   REMARKS
ALPINE         CLOUDY    56  54  90 CALM      30.20R
ANDREWS        CLOUDY    62  55  78 SE5       30.14S
ARTESIA        NOT AVBL
BIG SPRING     MOSUNNY   66  58  73 SE7       30.16R
CARLSBAD       CLOUDY    63  59  87 CALM      30.11S FOG
DRYDEN           N/A     67  62  84 E13       30.08R
FORT STOCKTON  LGT RAIN  62  62 100 E6        30.12R
GUAD PASS      NOT AVBL
HOBBS          NOT AVBL
MARFA          MOSUNNY   55  52  88 NE5       30.17R
MIDLAND AIRPK  MOSUNNY   66  57  71 SE5       30.14S
MIDLAND INTL   MOSUNNY   65  56  72 S8        30.13R
ODESSA         MOSUNNY   65  56  72 SE10      30.13S
PECOS          CLOUDY    63  61  93 E5        30.09S
PRESIDIO       CLOUDY    63  61  93 CALM      30.08R
SEMINOLE       MOSUNNY   61  53  75 E3        30.16R
SNYDER         MOSUNNY   64  56  75 S3        30.15R
WINK           CLOUDY    64  60  87 SE8       30.09R
$$
...OTHER STATIONS IN TEXAS...

CITY           SKY/WX    TMP DP  RH WIND       PRES   REMARKS
ABILENE        MOSUNNY   68  57  68 SW3       30.13R
AMARILLO       PTSUNNY   60  54  80 SW5       30.15S
AUSTIN         MOSUNNY   68  59  73 NE5       30.10R
BROWNSVILLE    MOSUNNY   83  72  69 E8        29.96R
CORPUS CHRISTI MOSUNNY   74  68  81 NE16      30.02R
DALLAS FTW     MOSUNNY   68  60  75 S3        30.12R
DEL RIO        CLOUDY    70  63  78 E6        30.07R
EL PASO        PTSUNNY   61  54  77 N5        30.10R
HOUSTON INT    MOSUNNY   69  57  65 NE6       30.08R
LUBBOCK        MOSUNNY   62  52  69 CALM      30.15R
SAN ANGELO     MOSUNNY   64  55  72 VRB5      30.13R
SAN ANTONIO    MOSUNNY   72  60  66 E5        30.09R
WACO           SUNNY     67  61  81 CALM      30.12R
WICHITA FALLS  NOT AVBL
$$
...OTHER LOCATIONS IN NEW MEXICO...

CITY           SKY/WX    TMP DP  RH WIND       PRES   REMARKS
ALAMAGORDO     NOT AVBL
ALBUQUERQUE    PTSUNNY   53  47  79 S7        30.17R
CANNON AFB     SUNNY     61  53  74 E2        30.17R
CLOVIS         NOT AVBL
HOLLOMAN AFB   MOSUNNY   54  54 100 CALM      30.12R FOG
ROSWELL        PTSUNNY   59  56  89 N7        30.13R
RUIDOSO        CLOUDY    48  46  93 CALM      30.25R
SANTA FE       CLOUDY    50  46  87 N5        30.21R
TRUTH OR CONSE CLOUDY    55  51  86 N6        30.14R
TUCUMCARI      MOSUNNY   59  49  69 SW5       30.15R
$$

USA.gov is the U.S. government's official web portal to all federal, state and local government web resources and services.